When you browse on this site, cookies collect data to enhance your experience and personalize the content and advertising you see.
Visit our Privacy Policy to learn more. By continuing to use the site, you agree to this use of cookies and data.
  • In Belgium
  • List of Countries
  • For 7 days
  • Water Temperature
  • Satellite Maps
  • Weather Map
  • Weather Widgets
  • user-avatar
    Login

    Hourly Weather Zaharovka

    Today, 23 May, Thursday

    Time Temperature Precipitation Wind Pressure Humidity
    00:00 +11°C° 0 mm 1 mps 740 mmHg 96%
    01:00 +10°C° 0 mm 1 mps 740 mmHg 96%
    02:00 +9°C° 0 mm 0 mps 739 mmHg 96%
    03:00 +10°C° 0 mm 0 mps 739 mmHg 95%
    04:00 +11°C° 0 mm 0 mps 739 mmHg 94%
    05:00 +12°C° 0 mm 0 mps 738 mmHg 93%
    06:00 +14°C° 0 mm 1 mps 738 mmHg 87%
    07:00 +16°C° 0 mm 1 mps 738 mmHg 82%
    08:00 +18°C° 0 mm 2 mps 738 mmHg 76%
    09:00 +18°C° 0.7 mm 2 mps 738 mmHg 77%
    10:00 +18°C° 0.7 mm 3 mps 739 mmHg 77%
    11:00 +18°C° 0.7 mm 4 mps 739 mmHg 77%
    12:00 +16°C° 0.2 mm 5 mps 739 mmHg 77%
    13:00 +15°C° 0.2 mm 5 mps 740 mmHg 77%
    14:00 +13°C° 0.2 mm 6 mps 740 mmHg 77%
    15:00 +12°C° 0 mm 5 mps 740 mmHg 76%
    16:00 +12°C° 0 mm 5 mps 741 mmHg 74%
    17:00 +10°C° 0 mm 5 mps 741 mmHg 73%
    18:00 +10°C° 0 mm 4 mps 741 mmHg 76%
    19:00 +9°C° 0 mm 3 mps 742 mmHg 80%
    20:00 +8°C° 0 mm 2 mps 742 mmHg 83%
    21:00 +7°C° 0 mm 2 mps 743 mmHg 84%
    22:00 +6°C° 0 mm 2 mps 743 mmHg 84%
    23:00 +6°C° 0 mm 2 mps 744 mmHg 85%

    Tomorrow, 24 May, Friday

    Time Temperature Precipitation Wind Pressure Humidity
    00:00 +5°C° 0 mm 2 mps 744 mmHg 81%
    01:00 +4°C° 0 mm 2 mps 745 mmHg 78%
    02:00 +4°C° 0 mm 2 mps 745 mmHg 75%
    03:00 +3°C° 0 mm 3 mps 745 mmHg 71%
    04:00 +3°C° 0 mm 3 mps 745 mmHg 68%
    05:00 +4°C° 0 mm 3 mps 746 mmHg 65%
    06:00 +5°C° 0 mm 3 mps 746 mmHg 60%
    07:00 +8°C° 0 mm 3 mps 746 mmHg 55%
    08:00 +10°C° 0 mm 3 mps 747 mmHg 50%
    09:00 +11°C° 0 mm 3 mps 747 mmHg 47%
    10:00 +11°C° 0 mm 3 mps 747 mmHg 45%
    11:00 +12°C° 0 mm 3 mps 746 mmHg 43%
    12:00 +13°C° 0 mm 3 mps 746 mmHg 42%
    13:00 +13°C° 0 mm 3 mps 746 mmHg 42%
    14:00 +14°C° 0 mm 3 mps 746 mmHg 42%
    15:00 +14°C° 0 mm 3 mps 746 mmHg 44%
    16:00 +14°C° 0 mm 3 mps 746 mmHg 47%
    17:00 +14°C° 0 mm 3 mps 745 mmHg 49%
    18:00 +12°C° 0 mm 3 mps 745 mmHg 55%
    19:00 +11°C° 0 mm 3 mps 745 mmHg 61%
    20:00 +9°C° 0 mm 3 mps 745 mmHg 66%
    21:00 +9°C° 0 mm 3 mps 745 mmHg 66%
    22:00 +9°C° 0 mm 3 mps 745 mmHg 65%
    23:00 +8°C° 0 mm 4 mps 745 mmHg 64%

    Day after tomorrow, 25 May, Saturday

    Time Temperature Precipitation Wind Pressure Humidity
    00:00 +8°C° 0 mm 4 mps 745 mmHg 64%
    01:00 +7°C° 0 mm 4 mps 745 mmHg 64%
    02:00 +7°C° 0 mm 4 mps 744 mmHg 64%
    03:00 +7°C° 0 mm 4 mps 744 mmHg 67%
    04:00 +7°C° 0 mm 4 mps 744 mmHg 70%
    05:00 +8°C° 0 mm 4 mps 743 mmHg 73%
    06:00 +8°C° 0.7 mm 4 mps 743 mmHg 77%
    07:00 +8°C° 0.7 mm 4 mps 743 mmHg 82%
    08:00 +10°C° 0.7 mm 4 mps 742 mmHg 86%
    09:00 +11°C° 0.1 mm 4 mps 742 mmHg 82%
    10:00 +13°C° 0.1 mm 5 mps 742 mmHg 78%
    11:00 +15°C° 0.1 mm 5 mps 741 mmHg 74%
    12:00 +16°C° 0 mm 5 mps 741 mmHg 72%
    13:00 +17°C° 0 mm 5 mps 741 mmHg 70%
    14:00 +19°C° 0 mm 5 mps 740 mmHg 67%
    15:00 +18°C° 0.2 mm 4 mps 740 mmHg 73%
    16:00 +17°C° 0.2 mm 3 mps 739 mmHg 78%
    17:00 +17°C° 0.2 mm 3 mps 738 mmHg 84%
    18:00 +16°C° 0.2 mm 3 mps 738 mmHg 86%
    19:00 +15°C° 0.2 mm 4 mps 738 mmHg 88%
    20:00 +15°C° 0.2 mm 5 mps 737 mmHg 90%
    21:00 +14°C° 0.1 mm 5 mps 737 mmHg 92%
    22:00 +14°C° 0.1 mm 5 mps 736 mmHg 93%
    23:00 +14°C° 0.1 mm 5 mps 736 mmHg 95%

    26 May, Sunday

    Time Temperature Precipitation Wind Pressure Humidity
    00:00 +14°C° 1 mm 5 mps 736 mmHg 96%
    01:00 +14°C° 1 mm 5 mps 736 mmHg 96%
    02:00 +14°C° 1 mm 4 mps 735 mmHg 97%
    03:00 +13°C° 0.1 mm 4 mps 735 mmHg 96%
    04:00 +13°C° 0.1 mm 3 mps 735 mmHg 96%
    05:00 +13°C° 0.1 mm 3 mps 735 mmHg 95%
    06:00 +13°C° 0 mm 3 mps 735 mmHg 89%
    07:00 +14°C° 0 mm 4 mps 736 mmHg 83%
    08:00 +15°C° 0 mm 4 mps 736 mmHg 77%
    09:00 +15°C° 0 mm 4 mps 736 mmHg 70%
    10:00 +17°C° 0 mm 4 mps 736 mmHg 63%
    11:00 +18°C° 0 mm 4 mps 736 mmHg 55%
    12:00 +18°C° 0 mm 4 mps 736 mmHg 56%
    13:00 +19°C° 0 mm 4 mps 736 mmHg 56%
    14:00 +19°C° 0 mm 4 mps 736 mmHg 56%
    15:00 +19°C° 0 mm 4 mps 736 mmHg 58%
    16:00 +18°C° 0 mm 4 mps 736 mmHg 60%
    17:00 +18°C° 0 mm 3 mps 736 mmHg 61%
    18:00 +16°C° 0 mm 2 mps 736 mmHg 68%
    19:00 +14°C° 0 mm 1 mps 736 mmHg 74%
    20:00 +12°C° 0 mm 0 mps 736 mmHg 81%
    21:00 +12°C° 0 mm 1 mps 736 mmHg 82%
    22:00 +12°C° 0 mm 2 mps 736 mmHg 83%
    23:00 +12°C° 0 mm 2 mps 735 mmHg 84%

    27 May, Monday

    Time Temperature Precipitation Wind Pressure Humidity
    00:00 +12°C° 0 mm 2 mps 735 mmHg 86%
    01:00 +12°C° 0 mm 2 mps 735 mmHg 87%
    02:00 +12°C° 0 mm 2 mps 735 mmHg 88%
    03:00 +11°C° 1.3 mm 3 mps 735 mmHg 90%
    04:00 +10°C° 1.3 mm 4 mps 735 mmHg 92%
    05:00 +10°C° 1.3 mm 4 mps 735 mmHg 94%
    06:00 +9°C° 0.3 mm 5 mps 735 mmHg 90%
    07:00 +9°C° 0.3 mm 6 mps 735 mmHg 86%
    08:00 +10°C° 0.3 mm 6 mps 735 mmHg 82%
    09:00 +10°C° 0.5 mm 7 mps 736 mmHg 80%
    10:00 +10°C° 0.5 mm 7 mps 736 mmHg 78%
    11:00 +10°C° 0.5 mm 8 mps 737 mmHg 76%
    12:00 +11°C° 0.2 mm 8 mps 737 mmHg 71%
    13:00 +12°C° 0.2 mm 8 mps 738 mmHg 65%
    14:00 +13°C° 0.2 mm 8 mps 738 mmHg 60%
    15:00 +12°C° 0.1 mm 7 mps 739 mmHg 62%
    16:00 +13°C° 0.1 mm 6 mps 739 mmHg 65%
    17:00 +13°C° 0.1 mm 6 mps 740 mmHg 67%
    18:00 +10°C° 0 mm 5 mps 740 mmHg 73%
    19:00 +10°C° 0 mm 4 mps 741 mmHg 78%
    20:00 +9°C° 0 mm 3 mps 741 mmHg 83%
    21:00 +9°C° 0 mm 3 mps 742 mmHg 83%
    22:00 +9°C° 0 mm 3 mps 742 mmHg 83%
    23:00 +10°C° 0 mm 3 mps 743 mmHg 83%

    28 May, Tuesday

    Time Temperature Precipitation Wind Pressure Humidity
    00:00 +9°C° 0 mm 3 mps 743 mmHg 87%
    01:00 +8°C° 0 mm 3 mps 744 mmHg 90%
    02:00 +7°C° 0 mm 2 mps 744 mmHg 94%
    03:00 +8°C° 0 mm 2 mps 745 mmHg 92%
    04:00 +8°C° 0 mm 2 mps 745 mmHg 90%
    05:00 +9°C° 0 mm 2 mps 746 mmHg 88%
    06:00 +11°C° 0 mm 3 mps 746 mmHg 81%
    07:00 +12°C° 0 mm 3 mps 746 mmHg 74%
    08:00 +14°C° 0 mm 3 mps 747 mmHg 67%
    09:00 +16°C° 0 mm 3 mps 747 mmHg 62%
    10:00 +18°C° 0 mm 3 mps 747 mmHg 58%
    11:00 +19°C° 0 mm 3 mps 747 mmHg 54%
    12:00 +20°C° 0 mm 3 mps 747 mmHg 53%
    13:00 +20°C° 0 mm 3 mps 746 mmHg 52%
    14:00 +21°C° 0 mm 2 mps 746 mmHg 50%
    15:00 +21°C° 0 mm 2 mps 746 mmHg 56%
    16:00 +21°C° 0 mm 2 mps 746 mmHg 61%
    17:00 +21°C° 0 mm 2 mps 746 mmHg 66%
    18:00 +19°C° 0 mm 2 mps 746 mmHg 69%
    19:00 +18°C° 0 mm 3 mps 746 mmHg 72%
    20:00 +17°C° 0 mm 3 mps 746 mmHg 75%
    21:00 +17°C° 0 mm 3 mps 746 mmHg 75%
    22:00 +17°C° 0 mm 3 mps 745 mmHg 76%
    23:00 +17°C° 0 mm 3 mps 745 mmHg 76%
    Show more